Time,TemperatureF,DewpointF,PressureIn,WindDirection,WindDirectionDegrees,WindSpeedMPH,WindSpeedGustMPH,Humidity,HourlyPrecipIn,Conditions,Clouds,dailyrainin,SoftwareType,DateUTC
2013-05-19 00:02:00,71.4,64.5,29.73,SSW,205,2.0,4.0,79,0.00,,,0.00,Wunderground v.1.15,2013-05-19 05:02:00,
2013-05-19 00:08:00,71.3,64.4,29.73,WNW,284,2.0,5.0,79,0.00,,,0.00,Wunderground v.1.15,2013-05-19 05:08:00,
2013-05-19 00:13:00,71.4,64.5,29.73,South,173,2.0,4.0,79,0.00,,,0.00,Wunderground v.1.15,2013-05-19 05:13:00,
2013-05-19 00:19:00,71.1,64.6,29.74,South,174,2.0,4.0,80,0.00,,,0.00,Wunderground v.1.15,2013-05-19 05:19:00,
2013-05-19 00:25:00,71.1,64.6,29.75,SW,232,1.0,5.0,80,0.00,,,0.00,Wunderground v.1.15,2013-05-19 05:25:00,
2013-05-19 00:31:00,71.1,64.6,29.75,North,11,2.0,3.0,80,0.00,,,0.00,Wunderground v.1.15,2013-05-19 05:31:00,
2013-05-19 00:36:00,71.2,64.7,29.75,WNW,288,3.0,4.0,80,0.00,,,0.00,Wunderground v.1.15,2013-05-19 05:36:00,
2013-05-19 00:42:00,71.1,64.6,29.75,WNW,302,3.0,4.0,80,0.00,,,0.00,Wunderground v.1.15,2013-05-19 05:42:00,
2013-05-19 00:48:00,71.1,64.6,29.76,WNW,291,2.0,5.0,80,0.00,,,0.00,Wunderground v.1.15,2013-05-19 05:48:00,
2013-05-19 00:54:00,71.0,64.5,29.76,SSW,195,2.0,4.0,80,0.00,,,0.00,Wunderground v.1.15,2013-05-19 05:54:00,
2013-05-19 00:59:00,70.9,64.4,29.75,East,82,2.0,4.0,80,0.00,,,0.00,Wunderground v.1.15,2013-05-19 05:59:00,
2013-05-19 01:05:00,70.7,64.6,29.75,WSW,255,2.0,5.0,81,0.00,,,0.00,Wunderground v.1.15,2013-05-19 06:05:00,
2013-05-19 01:11:00,70.7,64.6,29.75,West,274,3.0,4.0,81,0.00,,,0.00,Wunderground v.1.15,2013-05-19 06:11:00,
2013-05-19 01:16:00,70.7,64.6,29.75,WSW,240,3.0,4.0,81,0.00,,,0.00,Wunderground v.1.15,2013-05-19 06:16:00,
2013-05-19 01:22:00,70.5,64.4,29.76,WNW,297,2.0,4.0,81,0.00,,,0.00,Wunderground v.1.15,2013-05-19 06:22:00,
2013-05-19 01:28:00,70.5,64.4,29.76,ESE,104,2.0,4.0,81,0.00,,,0.00,Wunderground v.1.15,2013-05-19 06:28:00,
2013-05-19 01:34:00,70.6,64.5,29.76,SSW,201,2.0,4.0,81,0.00,,,0.00,Wunderground v.1.15,2013-05-19 06:34:00,
2013-05-19 01:39:00,70.6,64.5,29.76,NW,309,2.0,4.0,81,0.00,,,0.00,Wunderground v.1.15,2013-05-19 06:39:00,
2013-05-19 01:45:00,70.7,64.6,29.76,West,280,2.0,4.0,81,0.00,,,0.00,Wunderground v.1.15,2013-05-19 06:45:00,
2013-05-19 01:51:00,70.7,64.6,29.76,SW,221,2.0,4.0,81,0.00,,,0.00,Wunderground v.1.15,2013-05-19 06:51:00,
2013-05-19 01:57:00,70.9,64.8,29.75,SSW,195,2.0,4.0,81,0.00,,,0.00,Wunderground v.1.15,2013-05-19 06:57:00,
2013-05-19 02:02:00,71.0,64.9,29.75,NW,321,3.0,4.0,81,0.00,,,0.00,Wunderground v.1.15,2013-05-19 07:02:00,
2013-05-19 02:08:00,70.9,64.8,29.74,WSW,249,2.0,4.0,81,0.00,,,0.00,Wunderground v.1.15,2013-05-19 07:08:00,
2013-05-19 02:14:00,71.0,64.5,29.74,South,177,3.0,5.0,80,0.00,,,0.00,Wunderground v.1.15,2013-05-19 07:14:00,
2013-05-19 02:20:00,71.0,64.9,29.73,SSW,203,2.0,4.0,81,0.00,,,0.00,Wunderground v.1.15,2013-05-19 07:20:00,
2013-05-19 02:26:00,71.0,64.9,29.73,North,354,2.0,4.0,81,0.00,,,0.00,Wunderground v.1.15,2013-05-19 07:26:00,
2013-05-19 02:32:00,71.0,64.9,29.73,WNW,300,2.0,4.0,81,0.00,,,0.00,Wunderground v.1.15,2013-05-19 07:32:00,
2013-05-19 02:38:00,71.1,65.0,29.73,SSW,208,2.0,4.0,81,0.00,,,0.00,Wunderground v.1.15,2013-05-19 07:38:00,
2013-05-19 02:43:00,71.1,65.0,29.72,South,188,2.0,4.0,81,0.00,,,0.00,Wunderground v.1.15,2013-05-19 07:43:00,
2013-05-19 02:49:00,71.1,65.3,29.72,WNW,287,2.0,4.0,82,0.00,,,0.00,Wunderground v.1.15,2013-05-19 07:49:00,
2013-05-19 02:55:00,70.6,65.5,29.73,East,82,2.0,4.0,84,0.00,,,0.01,Wunderground v.1.15,2013-05-19 07:55:00,
2013-05-19 03:01:00,70.4,65.7,29.74,NE,36,3.0,5.0,85,0.00,,,0.01,Wunderground v.1.15,2013-05-19 08:01:00,
2013-05-19 03:06:00,70.5,65.4,29.74,NNE,24,4.0,7.0,84,0.00,,,0.01,Wunderground v.1.15,2013-05-19 08:06:00,
2013-05-19 03:12:00,70.8,65.4,29.73,NNW,347,4.0,7.0,83,0.00,,,0.01,Wunderground v.1.15,2013-05-19 08:12:00,
2013-05-19 03:18:00,70.9,65.5,29.72,North,11,4.0,7.0,83,0.00,,,0.01,Wunderground v.1.15,2013-05-19 08:18:00,
2013-05-19 03:24:00,70.4,65.3,29.72,NW,314,5.0,7.0,84,0.00,,,0.01,Wunderground v.1.15,2013-05-19 08:24:00,
2013-05-19 03:30:00,69.9,65.2,29.72,West,276,5.0,5.0,85,0.00,,,0.01,Wunderground v.1.15,2013-05-19 08:30:00,
2013-05-19 03:36:00,69.6,65.2,29.73,NE,44,3.0,5.0,86,0.00,,,0.01,Wunderground v.1.15,2013-05-19 08:36:00,
2013-05-19 03:42:00,69.4,65.4,29.72,ESE,104,2.0,4.0,87,0.00,,,0.01,Wunderground v.1.15,2013-05-19 08:42:00,
2013-05-19 03:47:00,69.3,65.6,29.72,SW,222,2.0,4.0,88,0.00,,,0.01,Wunderground v.1.15,2013-05-19 08:47:00,
2013-05-19 03:53:00,69.1,65.4,29.73,West,276,2.0,4.0,88,0.00,,,0.01,Wunderground v.1.15,2013-05-19 08:53:00,
2013-05-19 03:59:00,68.8,65.4,29.72,South,179,1.0,4.0,89,0.00,,,0.01,Wunderground v.1.15,2013-05-19 08:59:00,
2013-05-19 04:05:00,68.4,65.0,29.71,SSW,200,1.0,4.0,89,0.00,,,0.01,Wunderground v.1.15,2013-05-19 09:05:00,
2013-05-19 04:10:00,68.1,65.1,29.71,South,191,1.0,4.0,90,0.00,,,0.01,Wunderground v.1.15,2013-05-19 09:10:00,
2013-05-19 04:16:00,67.7,64.7,29.70,South,191,1.0,4.0,90,0.00,,,0.01,Wunderground v.1.15,2013-05-19 09:16:00,
2013-05-19 04:22:00,67.7,64.3,29.69,SE,146,1.0,4.0,89,0.00,,,0.01,Wunderground v.1.15,2013-05-19 09:22:00,
2013-05-19 04:28:00,67.6,63.9,29.68,West,277,2.0,4.0,88,0.00,,,0.01,Wunderground v.1.15,2013-05-19 09:28:00,
2013-05-19 04:34:00,67.5,63.8,29.67,West,273,1.0,4.0,88,0.00,,,0.01,Wunderground v.1.15,2013-05-19 09:34:00,
2013-05-19 04:40:00,67.4,63.4,29.66,SE,136,0.0,4.0,87,0.00,,,0.01,Wunderground v.1.15,2013-05-19 09:40:00,
2013-05-19 04:46:00,67.1,63.4,29.65,SE,136,0.0,4.0,88,0.00,,,0.01,Wunderground v.1.15,2013-05-19 09:46:00,
2013-05-19 04:51:00,66.7,63.4,29.66,SSW,195,1.0,4.0,89,0.00,,,0.01,Wunderground v.1.15,2013-05-19 09:51:00,
2013-05-19 04:57:00,66.5,63.2,29.66,South,188,2.0,4.0,89,0.00,,,0.01,Wunderground v.1.15,2013-05-19 09:57:00,
2013-05-19 05:02:00,66.5,62.8,29.66,South,176,1.0,4.0,88,0.00,,,0.01,Wunderground v.1.15,2013-05-19 10:02:00,
2013-05-19 05:08:00,66.7,62.7,29.65,SSW,201,1.0,4.0,87,0.00,,,0.01,Wunderground v.1.15,2013-05-19 10:08:00,
2013-05-19 05:13:00,66.9,62.6,29.65,SSW,198,1.0,4.0,86,0.00,,,0.01,Wunderground v.1.15,2013-05-19 10:13:00,
2013-05-19 05:19:00,67.0,62.7,29.64,SSW,198,1.0,4.0,86,0.00,,,0.01,Wunderground v.1.15,2013-05-19 10:19:00,
2013-05-19 05:25:00,67.1,62.8,29.64,WSW,239,1.0,4.0,86,0.00,,,0.01,Wunderground v.1.15,2013-05-19 10:25:00,
2013-05-19 05:31:00,67.2,62.9,29.64,SSW,195,1.0,4.0,86,0.00,,,0.01,Wunderground v.1.15,2013-05-19 10:31:00,
2013-05-19 05:36:00,67.2,62.9,29.64,South,173,1.0,4.0,86,0.00,,,0.01,Wunderground v.1.15,2013-05-19 10:36:00,
2013-05-19 05:42:00,67.0,62.7,29.65,South,172,0.0,4.0,86,0.00,,,0.01,Wunderground v.1.15,2013-05-19 10:42:00,
2013-05-19 05:48:00,66.7,62.7,29.65,SSE,156,0.0,4.0,87,0.00,,,0.01,Wunderground v.1.15,2013-05-19 10:48:00,
2013-05-19 05:53:00,66.6,62.9,29.66,SSE,156,0.0,4.0,88,0.00,,,0.01,Wunderground v.1.15,2013-05-19 10:53:00,
2013-05-19 05:59:00,66.6,62.9,29.67,SSE,156,0.0,4.0,88,0.00,,,0.01,Wunderground v.1.15,2013-05-19 10:59:00,
2013-05-19 06:05:00,66.5,63.2,29.68,SSE,156,0.0,4.0,89,0.00,,,0.01,Wunderground v.1.15,2013-05-19 11:05:00,
2013-05-19 06:11:00,66.2,62.9,29.69,SSE,156,0.0,4.0,89,0.00,,,0.01,Wunderground v.1.15,2013-05-19 11:11:00,
2013-05-19 06:16:00,66.2,63.2,29.70,SSE,156,0.0,4.0,90,0.00,,,0.01,Wunderground v.1.15,2013-05-19 11:16:00,
2013-05-19 06:22:00,66.0,63.0,29.71,SSE,157,0.0,4.0,90,0.00,,,0.01,Wunderground v.1.15,2013-05-19 11:22:00,
2013-05-19 06:28:00,66.1,63.4,29.72,SSE,162,1.0,4.0,91,0.00,,,0.01,Wunderground v.1.15,2013-05-19 11:28:00,
2013-05-19 06:34:00,66.0,63.3,29.72,SE,131,0.0,4.0,91,0.00,,,0.01,Wunderground v.1.15,2013-05-19 11:34:00,
2013-05-19 06:40:00,66.0,63.6,29.72,SE,131,0.0,4.0,92,0.00,,,0.01,Wunderground v.1.15,2013-05-19 11:40:00,
2013-05-19 06:46:00,66.2,64.1,29.72,SSE,160,0.0,4.0,93,0.00,,,0.01,Wunderground v.1.15,2013-05-19 11:46:00,
2013-05-19 06:52:00,66.5,64.1,29.72,South,174,0.0,4.0,92,0.00,,,0.01,Wunderground v.1.15,2013-05-19 11:52:00,
2013-05-19 06:58:00,66.6,64.2,29.72,South,173,0.0,4.0,92,0.00,,,0.01,Wunderground v.1.15,2013-05-19 11:58:00,
2013-05-19 07:03:00,66.7,64.3,29.72,South,173,0.0,4.0,92,0.00,,,0.01,Wunderground v.1.15,2013-05-19 12:03:00,
2013-05-19 07:09:00,66.8,64.4,29.71,South,184,1.0,4.0,92,0.00,,,0.01,Wunderground v.1.15,2013-05-19 12:09:00,
2013-05-19 07:15:00,66.9,64.2,29.70,South,170,1.0,4.0,91,0.00,,,0.01,Wunderground v.1.15,2013-05-19 12:15:00,
2013-05-19 07:21:00,67.1,64.1,29.70,South,188,0.0,4.0,90,0.00,,,0.01,Wunderground v.1.15,2013-05-19 12:21:00,
2013-05-19 07:26:00,67.2,64.2,29.69,SSE,167,0.0,4.0,90,0.00,,,0.01,Wunderground v.1.15,2013-05-19 12:26:00,
2013-05-19 07:32:00,67.3,63.9,29.67,SSE,167,0.0,4.0,89,0.00,,,0.01,Wunderground v.1.15,2013-05-19 12:32:00,
2013-05-19 07:38:00,67.5,63.8,29.67,SSE,166,0.0,4.0,88,0.00,,,0.01,Wunderground v.1.15,2013-05-19 12:38:00,
2013-05-19 07:44:00,67.6,63.9,29.65,SSE,156,0.0,4.0,88,0.00,,,0.01,Wunderground v.1.15,2013-05-19 12:44:00,
2013-05-19 07:50:00,67.6,63.9,29.66,South,169,0.0,4.0,88,0.00,,,0.01,Wunderground v.1.15,2013-05-19 12:50:00,
2013-05-19 07:56:00,67.5,63.8,29.65,South,177,0.0,4.0,88,0.00,,,0.01,Wunderground v.1.15,2013-05-19 12:56:00,
2013-05-19 08:02:00,67.5,63.8,29.63,SSE,152,1.0,4.0,88,0.00,,,0.01,Wunderground v.1.15,2013-05-19 13:02:00,
2013-05-19 08:07:00,67.7,63.7,29.63,East,94,2.0,4.0,87,0.00,,,0.01,Wunderground v.1.15,2013-05-19 13:07:00,
2013-05-19 08:13:00,67.7,64.0,29.63,SSE,164,2.0,4.0,88,0.00,,,0.01,Wunderground v.1.15,2013-05-19 13:13:00,
2013-05-19 08:19:00,67.9,64.2,29.67,NE,50,1.0,4.0,88,0.00,,,0.01,Wunderground v.1.15,2013-05-19 13:19:00,
2013-05-19 08:25:00,68.2,64.5,29.70,WNW,291,1.0,4.0,88,0.00,,,0.01,Wunderground v.1.15,2013-05-19 13:25:00,
2013-05-19 08:31:00,68.4,64.7,29.69,South,169,1.0,4.0,88,0.00,,,0.01,Wunderground v.1.15,2013-05-19 13:31:00,
2013-05-19 08:37:00,68.6,64.6,29.69,SW,226,1.0,4.0,87,0.00,,,0.01,Wunderground v.1.15,2013-05-19 13:37:00,
2013-05-19 08:43:00,68.9,64.5,29.69,SW,236,1.0,4.0,86,0.00,,,0.01,Wunderground v.1.15,2013-05-19 13:43:00,
2013-05-19 08:49:00,69.3,64.3,29.68,SSW,200,2.0,4.0,84,0.00,,,0.01,Wunderground v.1.15,2013-05-19 13:49:00,
2013-05-19 08:54:00,69.8,64.4,29.68,SSW,204,2.0,4.0,83,0.00,,,0.01,Wunderground v.1.15,2013-05-19 13:54:00,
2013-05-19 09:00:00,70.5,64.7,29.69,WNW,284,2.0,4.0,82,0.00,,,0.01,Wunderground v.1.15,2013-05-19 14:00:00,
2013-05-19 09:06:00,71.5,65.0,29.69,WNW,295,1.0,4.0,80,0.00,,,0.01,Wunderground v.1.15,2013-05-19 14:06:00,
2013-05-19 09:12:00,72.4,65.5,29.69,WNW,295,2.0,4.0,79,0.00,,,0.01,Wunderground v.1.15,2013-05-19 14:12:00,
2013-05-19 09:17:00,73.2,65.9,29.70,NW,326,3.0,4.0,78,0.00,,,0.01,Wunderground v.1.15,2013-05-19 14:17:00,
2013-05-19 09:23:00,74.0,66.7,29.70,WSW,256,2.0,4.0,78,0.00,,,0.01,Wunderground v.1.15,2013-05-19 14:23:00,
2013-05-19 09:29:00,74.2,66.1,29.70,East,90,3.0,4.0,76,0.00,,,0.01,Wunderground v.1.15,2013-05-19 14:29:00,
2013-05-19 09:35:00,74.4,66.3,29.70,WNW,294,3.0,9.0,76,0.00,,,0.01,Wunderground v.1.15,2013-05-19 14:35:00,
2013-05-19 09:40:00,74.8,66.3,29.70,NW,325,3.0,3.0,75,0.00,,,0.01,Wunderground v.1.15,2013-05-19 14:40:00,
2013-05-19 09:46:00,75.2,65.9,29.70,NNW,333,3.0,6.0,73,0.00,,,0.01,Wunderground v.1.15,2013-05-19 14:46:00,
2013-05-19 09:52:00,75.6,65.5,29.70,NW,326,4.0,4.0,71,0.00,,,0.01,Wunderground v.1.15,2013-05-19 14:52:00,
2013-05-19 09:58:00,76.3,65.4,29.69,NW,322,3.0,5.0,69,0.00,,,0.01,Wunderground v.1.15,2013-05-19 14:58:00,
2013-05-19 10:04:00,76.8,65.4,29.68,WNW,293,4.0,4.0,68,0.00,,,0.01,Wunderground v.1.15,2013-05-19 15:04:00,
2013-05-19 10:09:00,77.4,65.1,29.68,NW,312,4.0,10.0,66,0.00,,,0.01,Wunderground v.1.15,2013-05-19 15:09:00,
2013-05-19 10:15:00,77.8,65.5,29.67,NW,323,4.0,6.0,66,0.00,,,0.01,Wunderground v.1.15,2013-05-19 15:15:00,
2013-05-19 10:20:00,77.7,65.0,29.67,West,278,4.0,4.0,65,0.00,,,0.01,Wunderground v.1.15,2013-05-19 15:20:00,
2013-05-19 10:26:00,77.4,64.7,29.66,West,272,3.0,4.0,65,0.00,,,0.01,Wunderground v.1.15,2013-05-19 15:26:00,
2013-05-19 10:32:00,77.2,64.5,29.65,NNW,333,3.0,4.0,65,0.00,,,0.01,Wunderground v.1.15,2013-05-19 15:32:00,
2013-05-19 10:37:00,77.1,64.0,29.63,SW,219,3.0,6.0,64,0.00,,,0.01,Wunderground v.1.15,2013-05-19 15:37:00,
2013-05-19 10:43:00,77.0,63.4,29.62,South,173,3.0,6.0,63,0.00,,,0.01,Wunderground v.1.15,2013-05-19 15:43:00,
2013-05-19 10:49:00,77.0,63.4,29.62,SW,235,4.0,6.0,63,0.00,,,0.01,Wunderground v.1.15,2013-05-19 15:49:00,
2013-05-19 10:55:00,77.0,63.4,29.61,West,266,3.0,6.0,63,0.00,,,0.01,Wunderground v.1.15,2013-05-19 15:55:00,
2013-05-19 11:01:00,77.1,64.0,29.61,SSE,167,3.0,4.0,64,0.00,,,0.01,Wunderground v.1.15,2013-05-19 16:01:00,
2013-05-19 11:07:00,77.6,64.9,29.62,ENE,57,2.0,4.0,65,0.00,,,0.01,Wunderground v.1.15,2013-05-19 16:07:00,
2013-05-19 11:13:00,77.9,64.7,29.62,NW,310,2.0,4.0,64,0.00,,,0.01,Wunderground v.1.15,2013-05-19 16:13:00,
2013-05-19 11:19:00,78.3,66.0,29.63,SW,228,3.0,4.0,66,0.00,,,0.01,Wunderground v.1.15,2013-05-19 16:19:00,
2013-05-19 11:24:00,78.6,65.4,29.63,NW,323,4.0,5.0,64,0.00,,,0.01,Wunderground v.1.15,2013-05-19 16:24:00,
2013-05-19 11:30:00,79.4,66.6,29.63,NW,322,4.0,7.0,65,0.00,,,0.01,Wunderground v.1.15,2013-05-19 16:30:00,
2013-05-19 11:36:00,79.8,66.1,29.63,WSW,242,4.0,7.0,63,0.00,,,0.01,Wunderground v.1.15,2013-05-19 16:36:00,
2013-05-19 11:42:00,79.8,66.5,29.63,SSE,162,4.0,7.0,64,0.00,,,0.01,Wunderground v.1.15,2013-05-19 16:42:00,
2013-05-19 11:47:00,79.9,66.2,29.62,WNW,293,4.0,7.0,63,0.00,,,0.01,Wunderground v.1.15,2013-05-19 16:47:00,
2013-05-19 11:53:00,79.8,65.2,29.62,North,9,4.0,6.0,61,0.00,,,0.01,Wunderground v.1.15,2013-05-19 16:53:00,
2013-05-19 11:59:00,79.7,65.5,29.62,South,169,4.0,6.0,62,0.00,,,0.01,Wunderground v.1.15,2013-05-19 16:59:00,
2013-05-19 12:05:00,79.9,65.2,29.62,WNW,302,4.0,6.0,61,0.00,,,0.01,Wunderground v.1.15,2013-05-19 17:05:00,
2013-05-19 12:11:00,80.8,65.6,29.62,WNW,296,5.0,5.0,60,0.00,,,0.01,Wunderground v.1.15,2013-05-19 17:11:00,
2013-05-19 12:16:00,81.4,65.7,29.62,NW,317,5.0,11.0,59,0.00,,,0.01,Wunderground v.1.15,2013-05-19 17:16:00,
2013-05-19 12:22:00,82.0,65.3,29.62,ENE,61,5.0,5.0,57,0.00,,,0.01,Wunderground v.1.15,2013-05-19 17:22:00,
2013-05-19 12:27:00,82.4,65.6,29.62,NE,38,5.0,5.0,57,0.00,,,0.01,Wunderground v.1.15,2013-05-19 17:27:00,
2013-05-19 12:33:00,82.6,63.7,29.62,ENE,74,5.0,5.0,53,0.00,,,0.01,Wunderground v.1.15,2013-05-19 17:33:00,
2013-05-19 12:39:00,82.5,63.1,29.61,NNE,12,6.0,7.0,52,0.00,,,0.01,Wunderground v.1.15,2013-05-19 17:39:00,
2013-05-19 12:45:00,82.7,61.6,29.62,NW,323,6.0,9.0,49,0.00,,,0.01,Wunderground v.1.15,2013-05-19 17:45:00,
2013-05-19 12:50:00,82.9,62.9,29.62,NNE,13,6.0,11.0,51,0.00,,,0.01,Wunderground v.1.15,2013-05-19 17:50:00,
2013-05-19 12:56:00,83.0,62.4,29.63,NNW,336,7.0,11.0,50,0.00,,,0.01,Wunderground v.1.15,2013-05-19 17:56:00,
2013-05-19 13:02:00,83.3,62.7,29.62,NE,38,6.0,6.0,50,0.00,,,0.01,Wunderground v.1.15,2013-05-19 18:02:00,
2013-05-19 13:08:00,83.6,61.8,29.63,NNE,12,5.0,9.0,48,0.00,,,0.01,Wunderground v.1.15,2013-05-19 18:08:00,
2013-05-19 13:13:00,83.8,60.8,29.63,NE,41,6.0,6.0,46,0.00,,,0.01,Wunderground v.1.15,2013-05-19 18:13:00,
2013-05-19 13:19:00,83.9,61.5,29.63,ENE,59,6.0,8.0,47,0.00,,,0.01,Wunderground v.1.15,2013-05-19 18:19:00,
2013-05-19 13:25:00,84.3,62.5,29.62,North,356,6.0,7.0,48,0.00,,,0.01,Wunderground v.1.15,2013-05-19 18:25:00,
2013-05-19 13:30:00,84.7,62.8,29.62,North,354,5.0,5.0,48,0.00,,,0.01,Wunderground v.1.15,2013-05-19 18:30:00,
2013-05-19 13:36:00,84.7,62.8,29.62,NNW,335,5.0,6.0,48,0.00,,,0.01,Wunderground v.1.15,2013-05-19 18:36:00,
2013-05-19 13:42:00,84.6,61.5,29.62,North,350,5.0,12.0,46,0.00,,,0.01,Wunderground v.1.15,2013-05-19 18:42:00,
2013-05-19 13:48:00,84.6,62.1,29.61,NNE,29,5.0,12.0,47,0.00,,,0.01,Wunderground v.1.15,2013-05-19 18:48:00,
2013-05-19 13:53:00,84.9,62.4,29.61,NW,316,5.0,7.0,47,0.00,,,0.01,Wunderground v.1.15,2013-05-19 18:53:00,
2013-05-19 13:59:00,84.9,62.4,29.61,NNE,18,4.0,7.0,47,0.00,,,0.01,Wunderground v.1.15,2013-05-19 18:59:00,
2013-05-19 14:05:00,85.2,62.7,29.60,North,354,4.0,6.0,47,0.00,,,0.01,Wunderground v.1.15,2013-05-19 19:05:00,
2013-05-19 14:11:00,85.1,62.6,29.60,NNW,330,5.0,6.0,47,0.00,,,0.01,Wunderground v.1.15,2013-05-19 19:11:00,
2013-05-19 14:16:00,85.1,62.6,29.60,NE,40,5.0,6.0,47,0.00,,,0.01,Wunderground v.1.15,2013-05-19 19:16:00,
2013-05-19 14:22:00,85.4,63.5,29.60,NW,312,5.0,7.0,48,0.00,,,0.01,Wunderground v.1.15,2013-05-19 19:22:00,
2013-05-19 14:28:00,84.9,64.2,29.59,NNW,328,6.0,7.0,50,0.00,,,0.01,Wunderground v.1.15,2013-05-19 19:28:00,
2013-05-19 14:34:00,85.2,65.6,29.59,NNE,18,5.0,7.0,52,0.00,,,0.01,Wunderground v.1.15,2013-05-19 19:34:00,
2013-05-19 14:40:00,85.2,66.1,29.59,WNW,285,6.0,11.0,53,0.00,,,0.01,Wunderground v.1.15,2013-05-19 19:40:00,
2013-05-19 14:46:00,85.2,66.1,29.59,NNE,32,6.0,11.0,53,0.00,,,0.01,Wunderground v.1.15,2013-05-19 19:46:00,
2013-05-19 14:52:00,85.0,64.3,29.58,NW,326,6.0,8.0,50,0.00,,,0.01,Wunderground v.1.15,2013-05-19 19:52:00,
2013-05-19 14:57:00,85.0,66.0,29.58,NW,324,7.0,10.0,53,0.00,,,0.01,Wunderground v.1.15,2013-05-19 19:57:00,
2013-05-19 15:02:00,85.1,65.5,29.58,NNE,27,6.0,6.0,52,0.00,,,0.01,Wunderground v.1.15,2013-05-19 20:02:00,
2013-05-19 15:08:00,85.4,65.2,29.58,NW,310,5.0,12.0,51,0.00,,,0.01,Wunderground v.1.15,2013-05-19 20:08:00,
2013-05-19 15:14:00,85.2,65.0,29.58,North,358,6.0,10.0,51,0.00,,,0.01,Wunderground v.1.15,2013-05-19 20:14:00,
2013-05-19 15:20:00,84.7,65.1,29.58,North,355,6.0,6.0,52,0.00,,,0.01,Wunderground v.1.15,2013-05-19 20:20:00,
2013-05-19 15:25:00,84.6,66.7,29.58,WNW,300,7.0,11.0,55,0.00,,,0.01,Wunderground v.1.15,2013-05-19 20:25:00,
2013-05-19 15:31:00,84.6,66.1,29.58,WNW,296,6.0,9.0,54,0.00,,,0.01,Wunderground v.1.15,2013-05-19 20:31:00,
2013-05-19 15:37:00,84.1,66.2,29.58,NW,315,7.0,11.0,55,0.00,,,0.01,Wunderground v.1.15,2013-05-19 20:37:00,
2013-05-19 15:43:00,84.1,66.2,29.58,NW,318,7.0,16.0,55,0.00,,,0.01,Wunderground v.1.15,2013-05-19 20:43:00,
2013-05-19 15:49:00,84.2,66.3,29.58,North,353,8.0,16.0,55,0.00,,,0.01,Wunderground v.1.15,2013-05-19 20:49:00,
2013-05-19 15:55:00,84.3,66.9,29.58,NE,36,7.0,12.0,56,0.00,,,0.01,Wunderground v.1.15,2013-05-19 20:55:00,
2013-05-19 16:01:00,84.3,65.8,29.58,NNE,27,6.0,8.0,54,0.00,,,0.01,Wunderground v.1.15,2013-05-19 21:01:00,
2013-05-19 16:07:00,84.2,66.8,29.57,NW,321,6.0,13.0,56,0.00,,,0.01,Wunderground v.1.15,2013-05-19 21:07:00,
2013-05-19 16:12:00,84.2,67.3,29.57,NNW,332,7.0,8.0,57,0.00,,,0.01,Wunderground v.1.15,2013-05-19 21:12:00,
2013-05-19 16:18:00,84.2,65.8,29.57,NW,325,6.0,10.0,54,0.00,,,0.01,Wunderground v.1.15,2013-05-19 21:18:00,
2013-05-19 16:24:00,84.3,65.8,29.57,North,351,6.0,6.0,54,0.00,,,0.01,Wunderground v.1.15,2013-05-19 21:24:00,
2013-05-19 16:30:00,84.5,66.6,29.57,North,360,6.0,6.0,55,0.00,,,0.01,Wunderground v.1.15,2013-05-19 21:30:00,
2013-05-19 16:36:00,84.7,66.7,29.57,North,350,5.0,6.0,55,0.00,,,0.01,Wunderground v.1.15,2013-05-19 21:36:00,
2013-05-19 16:42:00,84.3,66.9,29.56,North,356,5.0,8.0,56,0.00,,,0.01,Wunderground v.1.15,2013-05-19 21:42:00,
2013-05-19 16:48:00,84.4,68.0,29.55,NNE,23,5.0,11.0,58,0.00,,,0.01,Wunderground v.1.15,2013-05-19 21:48:00,
2013-05-19 16:55:00,84.7,68.3,29.55,NE,42,5.0,6.0,58,0.00,,,0.01,Wunderground v.1.15,2013-05-19 21:55:00,
2013-05-19 17:00:00,84.0,66.6,29.54,NNW,330,5.0,5.0,56,0.00,,,0.01,Wunderground v.1.15,2013-05-19 22:00:00,
2013-05-19 17:06:00,83.2,66.9,29.54,NNE,12,4.0,6.0,58,0.00,,,0.01,Wunderground v.1.15,2013-05-19 22:06:00,
2013-05-19 17:12:00,83.3,67.5,29.54,NNE,21,4.0,10.0,59,0.00,,,0.01,Wunderground v.1.15,2013-05-19 22:12:00,
2013-05-19 17:18:00,83.1,67.8,29.53,NNW,327,5.0,10.0,60,0.00,,,0.01,Wunderground v.1.15,2013-05-19 22:18:00,
2013-05-19 17:23:00,83.1,67.8,29.53,NNW,344,4.0,7.0,60,0.00,,,0.01,Wunderground v.1.15,2013-05-19 22:23:00,
2013-05-19 17:29:00,83.5,68.2,29.53,NNE,30,4.0,7.0,60,0.00,,,0.01,Wunderground v.1.15,2013-05-19 22:29:00,
2013-05-19 17:35:00,83.3,68.4,29.53,NNE,13,3.0,4.0,61,0.00,,,0.01,Wunderground v.1.15,2013-05-19 22:35:00,
2013-05-19 17:40:00,82.7,67.9,29.53,WNW,285,3.0,5.0,61,0.00,,,0.01,Wunderground v.1.15,2013-05-19 22:40:00,
2013-05-19 17:45:00,82.3,68.0,29.53,East,86,3.0,5.0,62,0.00,,,0.01,Wunderground v.1.15,2013-05-19 22:45:00,
2013-05-19 17:51:00,81.9,67.1,29.53,East,84,3.0,4.0,61,0.00,,,0.01,Wunderground v.1.15,2013-05-19 22:51:00,
2013-05-19 17:57:00,81.7,67.9,29.52,WNW,302,2.0,5.0,63,0.00,,,0.01,Wunderground v.1.15,2013-05-19 22:57:00,
2013-05-19 18:02:00,81.9,67.6,29.52,NNW,347,2.0,4.0,62,0.00,,,0.01,Wunderground v.1.15,2013-05-19 23:02:00,
2013-05-19 18:08:00,81.7,67.4,29.52,NW,311,3.0,4.0,62,0.00,,,0.01,Wunderground v.1.15,2013-05-19 23:08:00,
2013-05-19 18:14:00,81.5,67.2,29.51,NNE,16,3.0,4.0,62,0.00,,,0.01,Wunderground v.1.15,2013-05-19 23:14:00,
2013-05-19 18:20:00,81.2,67.4,29.51,NW,324,2.0,4.0,63,0.00,,,0.01,Wunderground v.1.15,2013-05-19 23:20:00,
2013-05-19 18:26:00,81.2,66.5,29.51,North,352,3.0,7.0,61,0.00,,,0.01,Wunderground v.1.15,2013-05-19 23:26:00,
2013-05-19 18:31:00,81.3,66.6,29.51,NNW,335,3.0,4.0,61,0.00,,,0.01,Wunderground v.1.15,2013-05-19 23:31:00,
2013-05-19 18:37:00,81.2,66.0,29.50,NW,304,3.0,4.0,60,0.00,,,0.01,Wunderground v.1.15,2013-05-19 23:37:00,
2013-05-19 18:43:00,81.0,66.3,29.49,WNW,293,3.0,4.0,61,0.00,,,0.01,Wunderground v.1.15,2013-05-19 23:43:00,
2013-05-19 18:49:00,80.7,66.5,29.49,South,170,2.0,4.0,62,0.00,,,0.01,Wunderground v.1.15,2013-05-19 23:49:00,
2013-05-19 18:54:00,80.8,66.1,29.49,SSW,210,3.0,5.0,61,0.00,,,0.01,Wunderground v.1.15,2013-05-19 23:54:00,
2013-05-19 19:00:00,80.7,66.0,29.49,West,260,3.0,6.0,61,0.00,,,0.01,Wunderground v.1.15,2013-05-20 00:00:00,
2013-05-19 19:06:00,80.4,66.2,29.48,WNW,287,3.0,6.0,62,0.00,,,0.01,Wunderground v.1.15,2013-05-20 00:06:00,
2013-05-19 19:12:00,79.7,66.4,29.51,NNW,335,3.0,8.0,64,0.00,,,0.01,Wunderground v.1.15,2013-05-20 00:12:00,
2013-05-19 19:18:00,77.0,65.2,29.55,NE,51,6.0,12.0,67,0.00,,,0.02,Wunderground v.1.15,2013-05-20 00:18:00,
2013-05-19 19:24:00,69.6,62.8,29.57,NE,49,11.0,18.0,79,4.92,,,0.18,Wunderground v.1.15,2013-05-20 00:24:00,
2013-05-19 19:30:00,65.5,61.5,29.58,ENE,58,13.0,13.0,87,2.29,,,0.43,Wunderground v.1.15,2013-05-20 00:30:00,
2013-05-19 19:35:00,63.8,60.8,29.57,ENE,75,13.0,15.0,90,4.88,,,0.64,Wunderground v.1.15,2013-05-20 00:35:00,
2013-05-19 19:41:00,62.4,59.7,29.57,East,81,10.0,14.0,91,0.46,,,0.80,Wunderground v.1.15,2013-05-20 00:41:00,
2013-05-19 19:47:00,62.0,59.6,29.59,East,96,6.0,14.0,92,0.09,,,0.80,Wunderground v.1.15,2013-05-20 00:47:00,
2013-05-19 19:53:00,62.0,60.0,29.57,ENE,71,4.0,6.0,93,0.40,,,0.87,Wunderground v.1.15,2013-05-20 00:53:00,
2013-05-19 19:58:00,61.9,59.9,29.57,SE,127,3.0,6.0,93,0.20,,,0.88,Wunderground v.1.15,2013-05-20 00:58:00,
2013-05-19 20:04:00,61.9,59.9,29.57,East,100,2.0,6.0,93,0.95,,,0.94,Wunderground v.1.15,2013-05-20 01:04:00,
2013-05-19 20:10:00,61.8,59.8,29.56,SE,136,2.0,4.0,93,0.16,,,0.95,Wunderground v.1.15,2013-05-20 01:10:00,
2013-05-19 20:16:00,61.5,59.5,29.55,SE,124,2.0,4.0,93,0.25,,,0.98,Wunderground v.1.15,2013-05-20 01:16:00,
2013-05-19 20:22:00,61.4,59.4,29.53,SE,142,2.0,4.0,93,0.12,,,0.99,Wunderground v.1.15,2013-05-20 01:22:00,
2013-05-19 20:28:00,61.2,59.2,29.52,SSE,168,3.0,4.0,93,0.06,,,0.99,Wunderground v.1.15,2013-05-20 01:28:00,
2013-05-19 20:34:00,61.1,59.1,29.51,SSE,152,3.0,4.0,93,0.04,,,0.99,Wunderground v.1.15,2013-05-20 01:34:00,
2013-05-19 20:40:00,61.0,59.3,29.50,SE,144,1.0,1.0,94,0.00,,,0.99,Wunderground v.1.15,2013-05-20 01:40:00,
2013-05-19 20:45:00,61.0,59.3,29.50,SSE,156,1.0,4.0,94,0.00,,,0.99,Wunderground v.1.15,2013-05-20 01:45:00,
2013-05-19 20:50:00,61.1,59.4,29.50,SE,129,1.0,4.0,94,0.00,,,0.99,Wunderground v.1.15,2013-05-20 01:50:00,
2013-05-19 20:56:00,61.2,59.5,29.49,SSE,164,1.0,4.0,94,0.00,,,0.99,Wunderground v.1.15,2013-05-20 01:56:00,
2013-05-19 21:02:00,61.2,59.5,29.49,SE,131,1.0,4.0,94,0.00,,,0.99,Wunderground v.1.15,2013-05-20 02:02:00,
2013-05-19 21:08:00,61.3,59.6,29.51,ENE,65,1.0,11.0,94,0.00,,,0.99,Wunderground v.1.15,2013-05-20 02:08:00,
2013-05-19 21:14:00,62.2,60.2,29.56,NE,56,9.0,20.0,93,0.00,,,0.99,Wunderground v.1.15,2013-05-20 02:14:00,
2013-05-19 21:20:00,62.2,59.8,29.59,NE,47,12.0,12.0,92,0.42,,,1.00,Wunderground v.1.15,2013-05-20 02:20:00,
2013-05-19 21:26:00,61.8,59.8,29.61,ENE,64,6.0,12.0,93,0.68,,,1.10,Wunderground v.1.15,2013-05-20 02:26:00,
2013-05-19 21:31:00,61.6,59.9,29.59,East,81,3.0,4.0,94,0.37,,,1.14,Wunderground v.1.15,2013-05-20 02:31:00,
2013-05-19 21:37:00,61.4,59.7,29.59,ENE,68,1.0,4.0,94,0.19,,,1.17,Wunderground v.1.15,2013-05-20 02:37:00,
2013-05-19 21:43:00,61.3,59.9,29.60,East,86,0.0,4.0,95,0.23,,,1.19,Wunderground v.1.15,2013-05-20 02:43:00,
2013-05-19 21:49:00,61.2,59.8,29.60,East,86,0.0,4.0,95,0.51,,,1.22,Wunderground v.1.15,2013-05-20 02:49:00,
2013-05-19 21:54:00,61.1,59.7,29.62,East,90,1.0,4.0,95,0.30,,,1.25,Wunderground v.1.15,2013-05-20 02:54:00,
2013-05-19 22:00:00,61.1,59.7,29.61,SSE,168,1.0,1.0,95,0.25,,,1.28,Wunderground v.1.15,2013-05-20 03:00:00,
2013-05-19 22:06:00,61.0,59.9,29.60,SSE,167,0.0,4.0,96,0.26,,,1.30,Wunderground v.1.15,2013-05-20 03:06:00,
2013-05-19 22:12:00,60.9,59.8,29.61,SSE,167,0.0,4.0,96,0.17,,,1.32,Wunderground v.1.15,2013-05-20 03:12:00,
2013-05-19 22:18:00,60.9,59.8,29.61,South,184,1.0,4.0,96,0.21,,,1.34,Wunderground v.1.15,2013-05-20 03:18:00,
2013-05-19 22:24:00,60.9,59.8,29.61,South,177,1.0,4.0,96,0.23,,,1.36,Wunderground v.1.15,2013-05-20 03:24:00,
2013-05-19 22:30:00,60.8,59.7,29.60,South,190,1.0,4.0,96,0.28,,,1.39,Wunderground v.1.15,2013-05-20 03:30:00,
2013-05-19 22:35:00,60.8,59.7,29.60,South,184,1.0,4.0,96,0.37,,,1.42,Wunderground v.1.15,2013-05-20 03:35:00,
2013-05-19 22:41:00,60.7,59.6,29.59,SSW,205,2.0,4.0,96,0.21,,,1.44,Wunderground v.1.15,2013-05-20 03:41:00,
2013-05-19 22:47:00,60.6,59.5,29.58,SW,221,2.0,4.0,96,0.24,,,1.46,Wunderground v.1.15,2013-05-20 03:47:00,
2013-05-19 22:53:00,60.5,59.4,29.58,ESE,122,1.0,4.0,96,0.14,,,1.47,Wunderground v.1.15,2013-05-20 03:53:00,
2013-05-19 22:59:00,60.5,59.6,29.58,South,176,0.0,4.0,97,0.14,,,1.49,Wunderground v.1.15,2013-05-20 03:59:00,
2013-05-19 23:01:00,60.4,59.5,29.60,South,175,0.0,4.0,97,0.14,,,1.49,Wunderground v.1.15,2013-05-20 04:01:00,
2013-05-19 23:02:00,60.4,59.5,29.61,ENE,72,0.0,4.0,97,0.14,,,1.49,Wunderground v.1.15,2013-05-20 04:02:00,
2013-05-19 23:04:00,60.4,59.5,29.61,ENE,74,0.0,4.0,97,0.11,,,1.50,Wunderground v.1.15,2013-05-20 04:04:00,
2013-05-19 23:05:00,60.4,59.5,29.61,East,79,0.0,4.0,97,0.11,,,1.50,Wunderground v.1.15,2013-05-20 04:05:00,
2013-05-19 23:06:00,60.4,59.5,29.60,SE,131,0.0,4.0,97,0.11,,,1.50,Wunderground v.1.15,2013-05-20 04:06:00,
2013-05-19 23:12:00,60.3,59.4,29.58,SE,146,0.0,4.0,97,0.07,,,1.50,Wunderground v.1.15,2013-05-20 04:12:00,
2013-05-19 23:18:00,60.3,59.4,29.56,SE,146,0.0,4.0,97,0.04,,,1.50,Wunderground v.1.15,2013-05-20 04:18:00,
2013-05-19 23:23:00,60.2,59.3,29.55,SE,146,0.0,4.0,97,0.00,,,1.50,Wunderground v.1.15,2013-05-20 04:23:00,
2013-05-19 23:29:00,60.1,59.2,29.55,SSE,148,0.0,4.0,97,0.00,,,1.50,Wunderground v.1.15,2013-05-20 04:29:00,
2013-05-19 23:35:00,60.0,59.1,29.55,SSE,162,0.0,4.0,97,0.00,,,1.50,Wunderground v.1.15,2013-05-20 04:35:00,
2013-05-19 23:41:00,59.9,59.0,29.55,SSE,162,0.0,4.0,97,0.00,,,1.50,Wunderground v.1.15,2013-05-20 04:41:00,
2013-05-19 23:47:00,59.9,59.0,29.56,SSE,162,0.0,4.0,97,0.00,,,1.50,Wunderground v.1.15,2013-05-20 04:47:00,
2013-05-19 23:53:00,59.9,59.0,29.58,SE,131,0.0,4.0,97,0.00,,,1.50,Wunderground v.1.15,2013-05-20 04:53:00,
2013-05-19 23:59:00,59.8,58.9,29.60,SE,140,0.0,4.0,97,0.00,,,1.50,Wunderground v.1.15,2013-05-20 04:59:00,